Wind_Speed
67 66 64 61 61 60 61 60 60 60 59 59 59 57 55 54 53 52 50 51 50 50 49 48 49 48 48 47 47 43 44 43 45 42 45 45 43 41 44 41 47 46 42 40
66 67 64 64 62 63 64 63 64 63 62 61 62 61 59 58 57 57 55 54 54 53 50 48 50 50 53 51 50 50 49 45 47 48 46 49 49 46 45 45 42 49 49 49
67 66 63 64 63 63 64 64 64 63 64 66 67 67 63 59 62 61 60 60 58 59 57 53 54 55 56 56 52 52 51 49 48 50 54 52 52 49 46 45 43 47 52 51
68 66 66 67 66 65 65 63 64 66 66 68 68 73 69 65 61 61 64 64 64 63 64 62 58 60 60 57 57 57 55 52 53 53 53 52 53 55 48 49 48 49 48 55
67 65 65 65 62 62 63 62 64 66 68 71 71 76 71 68 65 63 63 67 66 66 66 66 62 60 54 53 56 59 58 55 51 54 58 53 51 54 55 53 53 50 50 56
69 69 69 68 64 64 64 68 69 70 69 73 72 71 74 71 70 69 64 63 61 59 61 63 60 57 53 54 56 58 57 56 52 52 56 56 53 52 57 57 54 56 51 49
69 70 68 66 68 69 67 65 65 67 68 74 70 67 74 72 72 70 62 53 49 51 55 57 56 51 53 57 59 60 56 54 55 52 52 53 55 54 55 59 57 53 55 53
62 64 66 63 64 60 54 52 58 63 64 61 57 66 72 69 68 59 54 55 55 53 54 57 59 60 60 63 65 61 59 59 60 57 52 54 54 55 53 56 59 57 54 52
63 65 63 60 49 41 45 49 46 48 51 55 60 63 62 57 51 46 48 50 54 55 55 60 63 63 63 65 61 57 58 61 64 65 62 57 56 59 56 56 57 61 57 54
60 60 56 50 49 50 49 41 42 44 48 50 52 51 50 35 31 35 43 47 51 58 62 62 62 64 67 66 65 60 61 63 62 60 55 58 59 57 61 56 57 58 62 60
57 57 56 51 54 50 45 42 44 46 48 50 51 49 36 35 39 41 42 47 50 55 60 65 66 64 63 65 60 49 49 53 56 56 60 57 54 54 52 51 54 56 59 64
47 49 48 48 45 46 47 48 45 46 44 44 45 45 29 35 38 44 49 51 50 50 54 56 54 57 64 64 63 63 57 53 54 55 56 59 58 57 56 55 56 56 58 59
47 42 40 42 45 48 50 46 45 41 40 42 45 39 30 34 37 42 46 49 54 58 51 52 49 50 50 54 65 66 63 62 58 60 59 59 58 55 54 57 57 60 62 59
38 45 48 41 37 40 42 41 40 39 41 41 41 36 27 38 41 42 42 46 53 57 61 59 54 54 54 58 53 50 65 64 64 62 65 61 57 54 53 59 60 62 67 59
30 40 42 38 40 43 42 41 41 42 41 45 38 39 31 40 40 38 40 45 50 54 57 61 60 58 57 67 59 60 63 55 66 62 65 68 66 61 56 53 54 63 64 66
27 29 37 37 39 43 44 42 42 45 45 44 40 35 40 40 42 42 41 42 44 48 51 54 59 60 59 63 68 68 69 67 68 63 62 63 64 71 66 62 60 53 55 62
40 32 34 36 36 36 40 38 43 43 40 39 39 34 40 41 40 41 43 43 43 46 49 50 51 54 57 59 60 63 69 66 68 72 75 74 72 71 73 70 65 67 59 56
35 33 35 32 32 37 35 35 36 37 36 36 35 34 37 39 41 42 43 45 46 47 46 47 47 47 51 54 56 59 62 65 67 70 72 74 73 79 78 79 76 71 73 68
35 40 39 40 34 30 30 33 35 35 34 35 37 37 38 39 40 43 45 46 45 46 47 47 47 47 49 50 52 53 55 59 61 64 65 65 67 70 74 78 77 74 71 70
43 46 44 39 47 41 29 34 36 37 33 36 36 36 38 41 43 44 46 46 46 45 44 45 45 46 45 46 48 50 51 54 57 61 63 64 63 65 66 70 73 74 75 75
42 47 50 48 47 48 40 38 37 39 33 32 32 37 40 41 42 44 45 45 44 43 41 39 40 42 44 45 47 49 51 52 57 61 64 66 66 66 65 64 67 73 76 78
43 47 51 54 50 50 47 42 41 38 38 40 41 41 41 42 41 39 40 41 42 42 42 43 45 48 50 52 52 54 57 56 55 60 62 66 73 73 70 70 67 66 70 74
53 56 49 48 43 44 44 44 42 43 43 43 43 44 43 41 40 41 43 43 46 48 50 51 54 56 58 61 62 63 65 65 68 71 70 69 71 76 79 75 72 71 69 70
40 41 47 51 43 44 46 44 47 47 43 43 44 45 43 42 44 46 48 50 52 54 56 59 61 64 65 68 72 72 73 76 78 82 84 81 79 75 78 80 79 75 73 72
43 40 43 42 41 42 45 45 44 43 45 46 46 46 47 49 50 52 54 58 60 62 65 67 69 71 74 75 79 81 82 84 87 89 90 91 89 76 77 80 81 81 78 76
40 36 38 38 41 43 41 41 43 47 48 48 48 49 50 53 55 58 61 64 67 70 72 75 77 79 81 84 87 89 90 91 92 93 86 85 88 79 73 80 81 81 82 79
Wind_Direction
248 248 249 253 255 256 257 258 259 262 263 264 265 267 269 272 270 271 272 273 274 277 277 277 277 278 278 279 281 279 279 285 283 276 274 273 271 271 273 277 275 266 265 265
250 251 253 254 256 258 259 261 262 264 266 267 267 266 268 269 272 274 275 275 274 273 272 272 273 273 274 275 276 277 279 276 275 274 269 271 271 269 270 277 278 271 263 261
251 252 253 254 255 256 258 260 263 266 267 267 267 266 267 267 271 273 276 277 277 275 272 271 270 271 271 272 271 271 272 275 274 273 274 271 268 269 270 271 269 274 269 262
250 251 252 253 255 259 260 263 264 265 266 267 265 265 266 268 269 272 275 274 273 274 274 272 270 270 270 270 269 268 267 267 269 266 268 271 270 269 269 267 267 266 269 264
251 253 255 256 257 258 259 259 260 261 263 264 266 267 267 269 270 271 270 272 272 273 271 270 270 270 269 265 266 267 265 266 262 260 262 267 268 269 269 266 267 266 261 264
246 247 248 252 252 254 255 257 259 259 260 261 268 267 271 276 277 274 271 270 272 274 273 272 270 267 266 260 259 259 259 264 263 261 259 265 270 265 265 267 267 268 261 260
249 251 253 254 255 256 257 258 261 263 264 270 269 270 271 269 270 271 274 277 276 273 264 267 267 259 253 256 253 252 253 257 258 260 263 266 269 270 263 262 265 265 268 263
247 248 252 256 260 263 261 260 261 264 266 270 266 266 270 268 268 273 274 273 270 266 264 261 258 258 256 252 248 248 250 252 253 254 256 256 261 267 266 261 261 264 263 265
252 253 254 256 255 252 256 255 262 261 260 262 262 264 266 271 275 275 271 264 261 262 258 259 258 254 251 245 247 258 260 258 258 261 264 266 261 263 266 261 259 258 258 261
248 250 250 250 247 247 250 251 250 253 257 259 264 266 272 279 275 259 259 258 256 255 255 256 260 259 261 265 266 265 269 266 263 263 264 264 267 258 265 265 263 259 260 261
246 245 245 242 244 247 250 251 254 255 255 260 266 269 277 273 266 263 257 257 256 255 256 257 257 259 260 263 265 264 260 262 264 265 264 259 251 252 256 262 264 261 260 261
244 245 246 249 246 244 244 245 245 250 259 263 267 267 271 264 261 261 258 254 254 255 258 261 264 263 265 265 260 259 261 258 255 259 261 258 250 251 256 259 259 258 256 259
237 238 241 243 242 239 241 244 248 254 258 260 265 270 270 265 259 259 259 259 257 260 258 256 257 258 253 256 263 264 261 258 252 250 250 253 252 250 253 257 256 260 255 252
231 234 240 241 248 249 247 245 249 256 256 258 265 271 262 260 261 262 260 259 259 257 256 263 263 255 254 251 260 260 263 258 256 251 251 248 250 253 255 253 255 255 256 252
230 231 232 234 241 246 247 244 246 251 255 256 263 265 264 262 261 263 263 261 260 262 262 262 263 263 260 260 256 251 263 255 250 245 247 250 249 253 258 259 258 255 258 254
246 251 229 234 241 243 246 246 249 249 249 258 262 264 264 266 265 271 270 266 264 265 266 266 266 267 266 264 267 269 269 273 277 257 253 253 254 254 255 261 261 261 261 258
250 237 230 230 237 242 243 243 251 257 262 265 264 265 262 263 265 268 273 274 272 271 271 272 271 270 270 269 268 267 271 273 274 274 274 269 266 263 266 268 268 260 260 264
220 231 229 219 233 240 244 248 253 257 260 264 265 263 263 264 266 272 276 276 277 280 280 278 278 278 277 278 278 273 271 272 272 272 272 273 273 269 267 269 270 270 263 260
228 234 234 230 237 255 252 252 256 259 259 264 264 264 268 271 270 271 272 276 279 281 283 284 284 283 283 283 283 282 280 279 279 277 275 273 272 270 269 268 268 268 268 267
239 234 232 240 251 258 257 255 257 258 260 262 264 266 266 265 266 272 277 278 280 281 281 282 284 286 289 291 292 291 287 282 279 279 279 278 275 272 269 267 265 262 260 264
224 230 234 240 254 253 261 265 255 258 266 268 265 262 262 266 269 271 273 276 279 281 283 285 287 288 288 289 291 292 292 292 292 293 290 285 282 278 272 268 265 262 258 258
244 248 253 256 257 256 261 254 258 265 263 262 262 262 263 264 265 268 270 272 276 278 278 279 281 283 284 286 286 290 293 286 289 295 293 290 288 284 279 274 269 265 264 262
246 251 243 243 252 254 258 259 260 258 255 257 261 263 262 262 266 268 271 274 275 275 277 280 283 286 287 288 288 289 291 292 291 296 296 286 289 282 280 276 272 268 265 262
251 246 244 251 250 250 246 252 258 259 263 263 263 263 264 263 265 268 271 273 276 279 280 282 285 287 288 289 291 291 292 295 294 294 296 293 290 281 273 273 273 269 266 263
246 251 252 260 245 246 251 255 257 260 261 262 263 262 264 266 268 271 273 276 279 281 282 283 284 285 286 287 287 288 290 290 289 290 291 291 291 277 267 267 267 267 267 265
247 254 250 246 246 248 250 253 256 259 261 262 262 265 268 271 274 276 278 279 281 282 284 285 286 288 289 289 290 291 292 293 293 293 292 290 287 287 271 261 261 262 263 262
Height
5743 5748 5757 5761 5764 5767 5771 5774 5777 5779 5780 5782 5786 5793 5798 5801 5805 5809 5813 5814 5815 5815 5815 5817 5817 5817 5818 5818 5818 5820 5819 5820 5819 5820 5820 5819 5820 5819 5818 5820 5821 5820 5820 5819
5734 5741 5748 5750 5754 5758 5761 5763 5764 5765 5766 5769 5774 5783 5786 5792 5795 5796 5799 5801 5802 5803 5804 5804 5805 5806 5805 5807 5809 5810 5810 5810 5808 5807 5809 5810 5810 5812 5811 5812 5811 5809 5809 5809
5720 5732 5735 5738 5743 5745 5749 5752 5751 5754 5752 5755 5759 5770 5775 5782 5783 5784 5786 5787 5788 5787 5789 5792 5791 5793 5794 5795 5797 5798 5798 5798 5797 5797 5796 5797 5799 5800 5802 5802 5803 5800 5803 5799
5708 5717 5721 5726 5733 5735 5740 5745 5741 5741 5739 5743 5748 5752 5760 5769 5778 5779 5776 5773 5771 5769 5771 5775 5779 5780 5781 5783 5783 5785 5786 5787 5787 5785 5784 5785 5787 5788 5790 5791 5789 5790 5792 5789
5705 5709 5712 5718 5726 5723 5729 5730 5727 5726 5725 5726 5742 5732 5753 5758 5766 5770 5767 5759 5757 5756 5756 5760 5763 5767 5769 5769 5770 5771 5774 5776 5777 5775 5774 5773 5774 5776 5776 5778 5779 5778 5779 5779
5688 5694 5695 5705 5708 5709 5714 5715 5714 5713 5712 5710 5733 5719 5741 5749 5750 5749 5748 5744 5743 5742 5741 5745 5749 5755 5757 5756 5758 5759 5761 5764 5763 5762 5763 5761 5761 5763 5762 5764 5766 5765 5765 5766
5681 5683 5689 5695 5696 5696 5700 5702 5701 5699 5701 5705 5713 5706 5719 5737 5732 5730 5728 5731 5731 5727 5725 5729 5733 5737 5740 5740 5742 5743 5744 5747 5747 5749 5750 5750 5750 5750 5750 5750 5752 5752 5752 5755
5663 5671 5676 5685 5686 5689 5689 5692 5690 5685 5688 5693 5695 5688 5705 5716 5718 5717 5718 5716 5715 5713 5712 5715 5717 5720 5723 5725 5724 5724 5726 5728 5729 5732 5733 5734 5735 5736 5736 5736 5738 5740 5740 5740
5655 5659 5667 5671 5674 5675 5680 5676 5686 5677 5678 5673 5675 5681 5691 5703 5707 5705 5704 5703 5698 5699 5701 5699 5702 5706 5707 5707 5707 5709 5712 5715 5718 5723 5726 5724 5725 5724 5723 5722 5722 5724 5726 5727
5643 5648 5654 5657 5661 5664 5665 5671 5670 5668 5665 5664 5666 5672 5681 5696 5694 5692 5688 5686 5686 5687 5685 5686 5685 5689 5691 5693 5693 5696 5699 5702 5704 5707 5708 5710 5711 5711 5710 5709 5711 5712 5713 5712
5631 5634 5641 5643 5647 5657 5660 5660 5661 5658 5657 5656 5658 5663 5682 5682 5679 5680 5678 5673 5675 5673 5673 5672 5672 5673 5677 5680 5681 5683 5685 5685 5687 5690 5693 5694 5694 5695 5696 5697 5697 5699 5700 5699
5624 5624 5629 5636 5642 5644 5645 5648 5648 5644 5652 5651 5651 5655 5671 5666 5667 5664 5660 5662 5662 5663 5661 5662 5664 5666 5666 5666 5668 5669 5671 5673 5674 5676 5677 5678 5679 5679 5681 5681 5682 5681 5684 5685
5614 5616 5620 5624 5628 5629 5632 5640 5642 5641 5640 5642 5640 5651 5658 5657 5653 5650 5649 5650 5652 5651 5650 5651 5651 5652 5654 5652 5653 5655 5656 5658 5659 5660 5662 5662 5663 5664 5664 5666 5666 5666 5667 5669
5600 5605 5608 5614 5622 5625 5627 5631 5632 5630 5628 5635 5633 5642 5654 5641 5641 5640 5640 5639 5638 5638 5638 5639 5640 5641 5640 5641 5637 5639 5642 5642 5644 5645 5647 5647 5648 5648 5649 5650 5651 5651 5651 5651
5592 5597 5600 5606 5609 5611 5615 5618 5619 5618 5627 5619 5633 5629 5640 5630 5630 5630 5629 5627 5627 5627 5627 5627 5627 5629 5629 5627 5627 5629 5628 5626 5628 5628 5629 5632 5633 5633 5634 5634 5635 5636 5635 5634
5585 5590 5592 5597 5600 5602 5604 5608 5610 5610 5613 5613 5618 5623 5619 5620 5618 5617 5617 5617 5617 5616 5615 5615 5614 5613 5614 5616 5615 5614 5613 5612 5610 5613 5612 5614 5616 5617 5618 5619 5620 5620 5620 5620
5579 5583 5585 5589 5591 5591 5592 5601 5598 5602 5605 5606 5606 5613 5608 5608 5608 5607 5605 5605 5606 5605 5604 5603 5602 5601 5600 5601 5602 5601 5600 5598 5597 5597 5598 5599 5600 5601 5601 5601 5602 5603 5604 5604
5568 5574 5576 5578 5580 5579 5589 5590 5592 5592 5595 5596 5598 5599 5597 5597 5597 5595 5594 5594 5593 5592 5591 5590 5589 5588 5587 5587 5586 5586 5585 5583 5582 5582 5582 5581 5581 5583 5583 5583 5584 5585 5586 5587
5561 5566 5567 5567 5571 5576 5579 5582 5583 5584 5587 5587 5587 5587 5586 5586 5586 5584 5583 5583 5583 5581 5580 5578 5577 5576 5575 5574 5573 5572 5571 5568 5566 5565 5565 5564 5562 5562 5563 5564 5564 5564 5565 5567
5553 5556 5557 5557 5560 5565 5572 5574 5573 5574 5577 5577 5578 5578 5577 5575 5574 5574 5572 5570 5570 5570 5568 5566 5564 5561 5560 5558 5556 5555 5554 5553 5551 5548 5545 5543 5542 5542 5542 5542 5543 5542 5543 5545
5544 5546 5547 5550 5550 5558 5562 5564 5564 5564 5575 5567 5568 5567 5566 5566 5565 5563 5561 5559 5558 5556 5555 5553 5551 5548 5546 5544 5543 5540 5538 5536 5534 5531 5527 5523 5521 5520 5518 5520 5521 5521 5521 5523
5537 5538 5540 5542 5543 5548 5552 5554 5554 5558 5555 5555 5556 5557 5557 5555 5554 5553 5550 5549 5547 5545 5543 5542 5540 5537 5534 5530 5528 5525 5522 5519 5517 5514 5510 5505 5500 5497 5497 5496 5496 5496 5497 5500
5525 5528 5531 5533 5537 5540 5540 5543 5542 5543 5543 5544 5546 5546 5545 5545 5543 5541 5539 5538 5535 5533 5530 5527 5526 5522 5518 5514 5511 5507 5503 5501 5497 5493 5490 5485 5481 5475 5471 5472 5473 5472 5472 5474
5517 5518 5519 5520 5525 5527 5529 5529 5529 5530 5532 5533 5533 5533 5533 5533 5531 5529 5528 5525 5522 5519 5516 5512 5509 5505 5501 5497 5492 5487 5483 5479 5475 5470 5465 5461 5457 5452 5448 5446 5446 5448 5449 5450
5506 5507 5508 5508 5514 5516 5518 5517 5518 5519 5519 5520 5521 5521 5520 5519 5518 5516 5514 5511 5507 5503 5499 5495 5492 5488 5483 5478 5473 5466 5460 5456 5453 5447 5440 5431 5425 5421 5421 5420 5420 5421 5422 5423
5496 5497 5496 5499 5503 5503 5505 5504 5506 5507 5507 5507 5508 5507 5505 5504 5502 5500 5498 5494 5490 5486 5482 5477 5472 5467 5461 5456 5449 5442 5435 5430 5425 5421 5415 5404 5396 5392 5389 5390 5394 5393 5394 5398